Pontiac, MI

1:18 AM EDT on October 24, 2017 (GMT -0400)
Oakland County International

Weather History for KPTK - April, 2013

Change the Weather History Date:

Wednesday, April 3, 2013

  Actual Average Record
Temperature  
Mean Temperature 30 °F -  
Max Temperature 39 °F 49 °F 75 °F (1999)
Min Temperature 21 °F 31 °F 19 °F (2016)
Degree Days  
Heating Degree Days 35    
Moisture  
Dew Point 12 °F    
Average Humidity 47    
Maximum Humidity 72    
Minimum Humidity 30    
Precipitation  
Precipitation 0.00 in - - ()
Sea Level Pressure  
Sea Level Pressure 30.35 in    
Wind  
Wind Speed 8 mph (WNW)    
Max Wind Speed 16 mph    
Max Gust Speed 26 mph    
Visibility 10 miles    
Events      
Averages and records for this station are not official NWS values.
T = Trace of Precipitation, MM = Missing Value Source: NWS Daily Summary

Daily Weather History Graph

Daily Weather History Graph

Search for Another Location

Airport or City:

Trip Planner

Search our weather history database for the weather conditions in past years. The results will help you decide how hot, cold, wet, or windy it might be!

Date:

Astronomy

Apr. 03, 2013 Rise Set
Actual Time 7:12 AM EDT 8:02 PM EDT
Civil Twilight 6:43 AM EDT 8:30 PM EDT
Nautical Twilight 6:09 AM EDT 9:05 PM EDT
Astronomical Twilight 5:34 AM EDT 9:40 PM EDT
Moon 3:00 AM EDT (4/3) 1:05 PM EDT (4/3)
Length of Visible Light 13h 47m
Length of Day
12h 50m
Last Quarter, 45% of the Moon is Illuminated
Apr 3
Last Quarter
Apr 10
New
Apr 18
First Quarter
Apr 25
Full
May 2
Last Quarter

Hourly Weather History & Observations

Time (EDT) Temp. Windchill Dew Point Humidity Pressure Visibility Wind Dir Wind Speed Gust Speed Precip Events Conditions
12:53 AM 27.0 °F 20.5 °F 10.9 °F 51% 30.25 in 10.0 mi West 5.8 mph - N/A   Clear
1:53 AM 25.0 °F 16.3 °F 12.0 °F 58% 30.25 in 10.0 mi WNW 8.1 mph - N/A   Clear
2:53 AM 25.0 °F 16.3 °F 14.0 °F 63% 30.25 in 10.0 mi West 8.1 mph - N/A   Clear
3:53 AM 25.0 °F 17.1 °F 15.1 °F 66% 30.25 in 10.0 mi West 6.9 mph - N/A   Clear
4:53 AM 26.1 °F 16.8 °F 14.0 °F 60% 30.27 in 10.0 mi NW 9.2 mph - N/A   Clear
5:53 AM 24.1 °F 17.0 °F 14.0 °F 65% 30.29 in 10.0 mi NW 5.8 mph - N/A   Partly Cloudy
6:53 AM 21.9 °F 15.7 °F 14.0 °F 72% 30.32 in 10.0 mi WNW 4.6 mph - N/A   Partly Cloudy
7:53 AM 24.1 °F 16.0 °F 12.9 °F 62% 30.34 in 10.0 mi NW 6.9 mph - N/A   Clear
8:53 AM 26.1 °F 16.8 °F 12.0 °F 55% 30.35 in 10.0 mi NW 9.2 mph - N/A   Clear
9:53 AM 28.9 °F 18.2 °F 12.9 °F 51% 30.37 in 10.0 mi NW 13.8 mph 21.9 mph N/A   Partly Cloudy
10:53 AM 30.0 °F 18.7 °F 12.0 °F 47% 30.39 in 10.0 mi NNW 16.1 mph 26.5 mph N/A   Mostly Cloudy
11:53 AM 33.1 °F 22.6 °F 8.1 °F 35% 30.41 in 10.0 mi NNW 16.1 mph 20.7 mph N/A   Scattered Clouds
12:53 PM 35.1 °F 25.5 °F 7.0 °F 31% 30.43 in 10.0 mi NNW 15.0 mph - N/A   Scattered Clouds
1:53 PM 36.0 °F 28.0 °F 7.0 °F 30% 30.41 in 10.0 mi NNW 11.5 mph 23.0 mph N/A   Scattered Clouds
2:53 PM 37.9 °F 29.6 °F 9.0 °F 30% 30.41 in 10.0 mi NNW 13.8 mph 18.4 mph N/A   Scattered Clouds
3:53 PM 37.9 °F 31.5 °F 10.0 °F 32% 30.40 in 10.0 mi West 9.2 mph - N/A   Partly Cloudy
4:53 PM 39.0 °F 34.8 °F 10.0 °F 30% 30.39 in 10.0 mi West 5.8 mph - N/A   Partly Cloudy
5:53 PM 39.0 °F 34.8 °F 10.9 °F 32% 30.40 in 10.0 mi West 5.8 mph - N/A   Partly Cloudy
6:53 PM 39.0 °F - 10.0 °F 30% 30.41 in 10.0 mi Calm Calm - N/A   Scattered Clouds
7:53 PM 37.0 °F - 10.0 °F 33% 30.40 in 10.0 mi Calm Calm - N/A   Mostly Cloudy
8:53 PM 34.0 °F - 12.0 °F 40% 30.38 in 10.0 mi Calm Calm - N/A   Scattered Clouds
9:53 PM 32.0 °F - 12.0 °F 44% 30.38 in 10.0 mi Calm Calm - N/A   Partly Cloudy
10:53 PM 32.0 °F 24.8 °F 14.0 °F 48% 30.38 in 10.0 mi South 8.1 mph - N/A   Partly Cloudy
11:53 PM 30.9 °F 25.2 °F 18.0 °F 59% 30.37 in 10.0 mi South 5.8 mph - N/A   Partly Cloudy